Zurück zum Katalog

STARLINK-35577

AktivKommunikationVLEO
NORAD 66538·PAYLOAD·🇺🇸 United States

Gestartet Nov 19, 2025 von Cape Canaveral Space Force Station

Loading…

Nächste Überflüge (nächste 24 Stunden)

TLE

AktuellSource: CelesTrak SupGP

Epoche: Sep 15, 2026, 03:53 UTC

1 66538C 25265Y   26258.16229167 -.00011204  00000+0 -40577-3 0  2588
2 66538  43.0000 287.8667 0001212 265.4356   2.9854 15.27587128    13

Verfolge STARLINK-35577 in Echtzeit mit AllMySat

Download on the App Store